Location: Spondin
(51.8528°N, 111.6118°W)
Time: 17:49:31
(UTC+00:00)

Vanguard 2 Rocket - Pass Details

Date: 01 June 2022
Orbit: 553 x 3323 km, 32.9° (Epoch: 02 July)

Event Time Altitude Azimuth Distance (km) Brightness Sun altitude
Rises 00:22:03 0° 269° (W) 7,092 12.8 26.6°
Reaches altitude 10° 00:28:38 10° 258° (WSW) 5,744 12.5 25.6°
Maximum altitude 00:39:38 22° 216° (SW) 3,978 10.7 23.9°
Drops below altitude 10° 00:47:44 10° 171° (S) 4,076 10.1 22.7°
Sets 00:51:23 0° 157° (SSE) 4,645 10.2 22.1°
